Temp
9 9 9 9 9 9 8 8 8 8 8 8 8 8 8 8 9 9 9 9 9 10 10 10 11 10 11 12 12 14 14 14 14 16 17 19 18 19 18 18 18 19 18 18 17 17 17
9 9 9 9 9 8 8 8 8 8 8 8 8 8 7 7 8 9 8 8 9 9 10 10 10 10 10 10 11 14 14 15 15 16 17 18 19 19 18 18 18 18 18 18 17 17 17
9 9 9 9 9 8 8 8 8 8 8 8 7 7 8 8 7 8 8 8 9 9 9 10 10 12 9 9 10 13 14 14 15 16 16 16 17 18 18 17 17 17 17 16 16 17 17
9 9 8 8 8 8 8 8 8 8 8 8 7 7 7 7 8 7 8 8 9 10 9 9 10 11 8 10 12 14 15 14 14 14 14 15 17 16 17 16 17 17 18 17 16 17 15
9 8 8 8 8 8 8 7 8 7 7 7 7 7 8 8 8 8 8 8 9 9 9 10 11 10 8 11 13 14 15 15 14 14 15 15 16 16 16 17 16 18 17 19 16 17 16
8 8 8 8 8 8 8 8 7 7 7 7 7 7 8 8 8 8 8 9 8 9 10 11 10 10 9 11 12 14 14 14 15 15 15 16 15 14 15 12 13 16 19 19 19 16 16
8 8 8 8 8 8 8 7 7 7 7 7 8 8 9 8 8 8 9 9 8 9 9 9 9 10 10 11 12 14 14 15 16 16 15 15 12 12 13 14 15 16 16 17 18 15 15
8 8 8 8 8 8 8 7 7 7 7 7 8 8 7 8 8 9 9 9 7 8 7 9 9 9 9 12 14 14 15 16 16 14 15 14 11 14 14 14 14 15 15 15 16 16 15
8 8 8 8 8 8 8 8 7 7 7 8 8 8 8 9 9 9 8 7 7 8 7 8 9 10 11 14 13 13 15 15 15 16 15 14 13 14 15 14 13 15 13 13 13 15 15
8 8 8 8 8 8 8 8 8 8 7 7 8 9 9 10 9 8 8 8 8 8 9 8 10 12 14 14 13 14 14 14 15 14 14 13 13 14 14 12 13 14 14 14 14 12 11
8 8 8 8 8 8 8 8 7 8 9 9 9 9 9 9 10 10 9 8 8 9 11 11 12 13 15 14 13 13 14 16 14 14 14 12 13 14 14 11 14 14 14 13 14 13 11
7 8 7 7 7 8 7 8 8 9 9 9 9 9 10 10 10 9 8 8 9 11 9 12 14 14 14 14 14 14 14 14 14 14 14 13 13 13 14 14 14 14 13 14 14 13 12
7 7 7 7 7 7 7 7 10 11 10 10 10 10 10 10 11 9 9 10 10 10 11 12 13 15 15 14 14 15 14 14 12 11 9 13 14 13 13 13 14 13 11 11 11 14 11
7 7 7 7 7 7 7 7 9 11 12 11 11 11 11 10 10 10 10 11 10 10 12 13 14 15 14 15 14 15 15 12 14 16 11 11 10 14 13 14 14 16 15 9 11 11 11
6 7 7 6 7 7 8 7 10 11 11 12 11 11 11 10 10 9 10 10 10 12 14 14 14 14 14 14 14 15 15 15 15 15 14 10 11 14 14 15 15 15 14 15 11 12 10
6 6 7 7 7 9 9 10 11 12 12 12 12 12 12 12 10 10 11 11 12 15 15 15 15 15 15 15 15 15 16 15 15 15 15 15 12 15 14 14 14 13 15 12 12 9 11
7 7 7 8 9 9 9 10 11 12 12 12 12 14 12 12 10 13 10 12 13 14 14 15 16 16 15 15 16 16 15 15 15 15 15 15 14 14 14 13 14 12 12 13 14 13 10
8 8 8 8 9 9 9 10 10 12 11 12 13 13 14 13 13 14 11 14 13 14 14 15 15 16 16 16 16 16 16 16 16 16 15 14 14 12 14 16 15 15 15 14 11 14 13
8 8 8 9 9 9 10 10 10 12 12 12 15 14 15 14 13 12 14 13 14 14 15 15 16 16 16 16 16 16 16 15 15 15 14 15 13 10 15 14 15 13 14 14 14 13 11
7 7 8 8 9 9 9 10 11 12 12 12 14 11 15 14 15 15 15 15 14 14 15 15 15 16 16 16 16 16 16 14 15 14 13 13 13 12 11 15 14 14 14 15 13 10 12
7 7 7 8 8 9 10 10 12 12 12 13 13 12 12 13 14 15 15 16 15 15 14 15 15 15 16 16 16 15 16 14 14 13 13 13 11 12 12 14 13 13 13 14 13 13 12
8 8 7 7 8 8 9 10 12 13 13 13 12 13 12 14 14 15 13 15 16 15 15 15 14 16 16 15 16 16 16 16 15 12 13 13 10 12 9 13 13 12 13 13 14 14 14
9 8 8 7 7 8 9 9 10 12 13 13 12 12 12 12 15 15 15 16 15 15 15 15 15 14 14 14 14 14 14 13 14 14 12 13 10 10 10 12 12 11 14 14 14 14 14
9 9 8 8 7 7 8 9 9 10 10 10 8 10 12 14 14 15 15 15 14 14 13 15 14 13 12 13 13 12 11 12 12 13 13 13 12 11 9 10 9 14 16 15 15 15 14
9 9 8 8 8 7 7 8 8 9 10 8 8 9 11 12 13 14 14 14 14 13 12 13 14 13 12 12 12 13 13 14 13 12 12 12 11 10 8 9 12 14 14 12 12 13 14
8 9 9 8 8 7 7 7 8 8 9 8 8 8 10 10 13 14 13 14 12 13 13 12 12 12 12 12 13 12 13 16 13 11 11 11 11 11 10 9 10 15 13 14 14 10 14
8 8 8 8 8 7 7 7 7 8 8 8 7 7 8 9 12 13 12 12 13 12 12 13 11 10 12 11 11 11 11 14 12 13 8 9 10 10 10 10 10 14 12 13 13 13 14
8 8 8 8 8 8 7 7 7 7 7 7 7 7 7 7 9 11 11 11 11 10 11 11 11 10 10 10 11 12 12 12 12 13 11 9 8 8 9 9 9 12 12 12 13 14 13
8 8 8 8 8 8 8 7 7 7 7 7 7 6 6 5 7 9 10 10 10 9 9 11 11 12 11 10 11 11 11 12 12 11 14 11 13 11 11 11 13 12 13 12 13 12 13
Height
806 801 797 793 789 785 782 779 776 775 773 771 770 769 769 769 772 774 773 773 773 774 776 778 779 787 789 792 801 800 798 797 797 795 795 795 795 792 799 802 804 805 810 811 813 815 815
808 805 800 796 793 790 786 783 780 778 777 776 775 775 774 774 775 773 774 775 773 777 778 779 785 791 791 797 803 802 800 798 798 797 796 796 795 794 799 803 806 807 810 811 813 813 815
811 808 804 800 797 794 790 787 784 780 779 778 777 776 774 774 775 776 778 777 775 779 781 783 787 789 794 807 803 804 803 801 799 799 799 800 799 799 800 808 809 810 816 816 815 814 815
814 811 807 803 800 796 793 790 788 785 783 782 781 780 780 779 780 780 779 780 778 779 780 787 790 789 810 807 806 804 804 803 803 803 804 803 803 802 807 810 812 814 812 817 816 815 816
819 815 811 807 803 798 795 792 789 788 786 784 784 782 780 781 782 782 783 782 783 784 783 788 790 792 818 813 808 807 806 805 805 806 806 805 804 810 812 811 817 812 818 808 819 814 815
823 818 815 811 806 801 797 793 791 790 788 787 785 783 781 781 784 787 787 786 787 788 793 793 796 802 821 817 811 810 809 808 807 807 806 806 809 815 814 825 834 823 810 804 808 818 815
825 821 817 813 809 804 800 796 794 792 791 790 787 784 778 784 788 789 790 791 794 799 801 805 808 803 816 814 813 812 810 808 807 805 808 811 821 827 825 823 821 820 819 817 809 817 820
827 824 819 815 811 807 803 800 797 796 795 793 791 790 788 790 793 794 795 796 803 807 812 812 810 807 811 813 812 811 809 808 806 812 810 816 831 826 826 826 825 825 824 823 817 815 819
830 825 821 817 813 809 805 803 800 799 797 795 795 794 795 796 797 798 800 803 805 804 815 826 825 824 819 816 817 816 811 808 808 809 812 820 828 828 825 829 830 827 833 833 834 822 810
833 829 824 820 816 811 808 806 804 802 800 799 798 798 799 799 803 804 804 806 806 806 814 834 828 824 819 817 820 818 817 816 814 818 819 829 831 830 829 835 833 829 829 830 829 836 837
836 831 827 823 819 815 811 809 808 806 804 804 802 803 802 800 803 806 808 807 806 806 815 832 824 822 817 817 821 819 818 812 816 822 823 834 833 831 829 841 829 831 831 831 829 833 838
838 834 830 825 822 818 814 811 809 809 809 807 806 805 806 806 807 807 805 806 807 805 838 827 821 819 818 816 817 817 817 818 821 820 824 830 831 830 830 828 830 828 830 826 826 829 834
839 835 832 828 824 821 817 814 811 810 810 810 810 809 809 809 806 806 804 803 808 820 832 827 823 816 815 816 817 814 816 819 826 838 850 830 829 830 831 830 827 828 837 845 842 825 836
841 837 834 830 826 822 819 816 814 811 811 811 811 811 810 809 809 808 808 807 823 833 822 821 817 816 818 816 819 818 816 827 821 816 834 839 850 827 827 825 824 818 821 856 848 845 839
842 839 835 832 829 824 820 817 814 812 811 810 810 810 809 808 807 809 812 815 828 819 816 817 818 818 821 820 819 815 818 820 821 820 824 844 837 822 824 820 824 819 825 823 843 832 844
844 841 837 833 831 827 822 818 814 811 810 810 810 809 807 806 805 807 807 816 820 813 813 814 814 815 817 818 818 815 816 820 821 820 820 819 835 819 823 825 824 826 822 838 835 859 838
846 843 839 836 832 828 824 819 815 811 808 808 808 805 806 804 805 802 819 819 819 817 816 815 811 811 813 815 811 813 816 819 817 819 819 818 823 826 823 824 820 831 829 826 821 823 842
847 844 841 838 834 830 824 820 815 811 808 807 805 808 804 803 807 807 818 812 814 817 816 813 811 807 807 810 810 810 811 814 814 816 817 820 821 830 817 805 807 812 813 817 836 816 817
849 845 842 838 835 830 826 821 816 811 808 808 806 806 804 802 814 819 818 819 816 818 815 814 811 812 812 811 815 811 812 814 815 817 820 817 822 843 816 815 811 816 808 808 808 811 818
851 848 844 840 836 831 827 823 818 813 809 809 808 821 808 806 806 809 812 815 819 819 817 816 814 813 814 813 812 813 812 815 815 816 820 821 819 822 829 805 808 810 804 802 807 827 807
852 849 846 842 838 833 829 824 819 815 812 810 810 819 820 819 814 811 810 810 814 817 818 816 815 814 812 812 810 813 809 815 817 819 821 822 825 819 813 805 805 803 798 797 799 795 802
854 850 848 845 841 837 832 827 821 816 814 814 816 817 818 817 817 817 820 813 811 814 815 815 818 810 812 816 811 812 810 810 810 820 820 818 830 817 825 804 800 797 786 783 782 781 780
855 852 849 847 844 841 836 831 826 820 816 819 822 821 820 820 815 816 814 812 815 817 815 815 815 815 814 814 813 811 811 810 809 811 819 817 829 829 821 805 803 799 768 767 771 772 774
856 854 851 848 846 843 839 835 831 827 825 826 827 826 823 820 818 813 814 815 816 817 821 816 818 819 820 816 813 810 811 810 810 808 809 813 818 825 824 816 822 767 754 757 761 761 762
856 854 852 850 847 845 842 839 836 833 830 829 830 830 826 826 819 816 816 816 814 816 820 818 816 816 817 817 818 810 804 803 800 803 808 811 819 827 840 826 786 764 758 764 766 758 748
854 854 852 850 847 846 844 841 839 837 834 832 832 831 830 829 818 817 818 816 819 815 813 816 816 817 818 819 816 817 812 791 801 811 811 814 814 821 819 824 804 758 758 757 758 773 740
853 853 851 849 847 846 844 842 841 840 838 835 834 833 832 830 818 817 818 818 816 818 817 812 816 820 817 818 820 817 816 797 805 797 822 822 817 819 817 815 788 755 758 759 770 757 742
852 852 851 849 847 845 843 842 841 841 839 838 836 834 834 832 820 817 817 816 817 820 819 819 819 820 823 822 814 807 805 798 798 787 798 809 822 822 815 816 800 751 760 762 746 738 740
850 850 850 847 846 844 842 840 839 840 840 839 837 835 834 833 822 817 814 815 817 817 819 815 815 815 815 819 812 808 805 798 795 800 772 790 774 780 781 767 742 742 737 738 736 740 739
Wind_Speed
25 27 27 28 28 26 23 20 18 15 15 14 12 12 12 11 8 6 6 6 8 4 6 16 11 18 4 9 8 8 7 4 3 3 3 3 5 2 5 6 4 2 3 2 5 1 4
24 26 26 27 26 26 25 22 20 16 14 13 11 11 11 8 4 4 6 7 7 6 11 23 23 19 2 11 11 8 5 5 4 3 3 5 3 3 6 5 2 4 1 3 3 2 3
24 25 25 25 25 24 23 23 21 20 16 14 13 11 13 7 8 9 7 8 9 4 19 24 20 16 16 5 13 7 7 8 7 4 7 10 8 4 6 4 1 4 3 5 5 2 2
24 24 24 24 24 22 19 18 18 17 15 14 12 9 7 9 10 9 11 10 13 8 14 18 15 24 6 8 12 3 8 11 12 12 10 9 9 6 5 4 4 4 2 3 3 3 4
25 24 24 24 24 23 22 18 15 15 15 15 13 10 6 5 4 10 11 13 10 16 23 17 12 13 7 9 10 9 8 9 9 7 7 5 5 3 2 2 1 4 3 5 4 2 2
24 24 24 24 23 25 25 23 18 15 14 13 14 10 4 5 8 12 13 22 28 23 20 19 7 10 2 2 5 6 5 5 4 4 4 3 2 2 2 4 1 4 3 2 1 5 4
23 23 23 23 24 24 26 25 20 16 16 15 19 20 9 14 16 17 20 12 6 7 17 9 11 21 5 3 4 6 4 1 2 4 3 3 4 5 7 7 4 5 5 6 6 4 3
23 23 24 23 23 23 23 24 23 20 16 15 18 21 27 24 20 13 11 5 5 6 11 20 17 14 4 6 6 10 8 2 4 5 2 2 5 6 5 4 5 5 4 4 6 2 6
25 25 25 26 25 24 23 22 22 21 16 13 15 15 16 19 19 23 17 10 8 4 7 7 6 5 4 6 6 8 11 5 5 5 3 5 7 3 2 2 4 3 2 5 4 9 11
24 25 26 27 26 25 24 21 20 19 16 15 17 15 19 19 16 12 5 7 4 2 4 7 3 3 4 5 4 7 6 3 3 7 8 6 2 1 1 4 3 1 3 4 7 7 3
23 24 25 27 27 26 24 21 17 17 16 13 9 9 6 8 18 1 4 1 4 3 6 6 3 2 1 3 4 4 4 2 8 6 2 3 4 2 2 3 1 2 3 6 4 4 5
21 23 24 26 26 26 24 20 16 14 13 10 4 14 17 9 1 4 3 5 4 1 5 1 1 2 5 6 2 4 2 4 3 4 7 4 2 2 3 1 4 4 4 4 2 2 3
21 22 23 24 25 25 23 20 11 9 9 9 9 11 3 2 3 5 11 4 4 6 3 2 3 4 5 4 4 4 5 3 3 4 2 3 4 4 3 4 5 5 2 2 2 2 3
21 21 22 22 24 25 23 21 18 6 3 4 2 4 3 6 7 7 4 2 8 4 3 3 5 3 2 1 2 4 5 4 2 3 4 4 2 7 7 3 2 2 1 3 3 2 3
20 21 22 22 23 23 25 24 19 13 3 3 4 1 3 6 4 3 3 5 4 4 5 8 3 3 1 2 2 2 4 2 3 5 0 3 3 3 4 1 1 1 1 2 0 3 1
21 21 21 22 22 24 24 25 21 14 6 3 3 5 1 3 2 3 2 5 3 4 5 5 2 4 4 3 4 4 2 1 3 1 4 2 2 6 5 2 5 3 2 1 1 2 5
21 22 22 22 23 24 25 26 23 16 9 2 1 2 3 5 2 1 3 4 5 4 3 3 1 3 4 4 2 2 3 4 2 4 3 3 2 3 3 7 7 3 3 4 3 2 3
20 21 23 23 23 25 25 26 27 17 8 3 3 2 7 4 2 3 3 2 1 5 3 1 4 5 3 1 2 1 2 4 4 1 2 4 3 3 8 4 5 1 5 7 3 4 4
16 19 22 23 24 25 26 26 29 17 10 2 2 1 4 4 3 3 0 3 4 1 1 1 1 4 4 1 1 1 2 5 4 4 2 2 2 3 1 2 2 4 5 6 6 3 6
16 17 20 23 25 26 26 26 28 18 10 2 2 2 2 3 3 6 4 2 3 1 1 2 3 2 1 3 2 0 4 3 5 3 2 1 3 6 5 3 2 6 8 8 10 4 7
17 16 19 21 24 26 27 27 26 20 10 3 3 1 1 2 3 2 1 1 4 3 2 2 3 5 3 2 3 3 3 4 5 5 2 2 4 6 9 13 12 16 17 14 15 15 13
16 17 17 19 22 24 26 26 26 22 8 6 3 2 2 2 0 6 1 3 4 3 2 4 3 1 2 3 4 3 2 4 4 6 3 5 4 5 7 13 16 18 19 19 20 21 20
16 16 17 17 19 22 24 25 25 26 10 8 6 3 2 2 2 2 2 3 2 3 2 5 4 3 6 4 7 6 6 8 6 4 7 4 2 3 5 8 12 13 12 20 17 8 9
14 16 16 17 18 20 22 23 23 22 17 6 5 3 2 1 1 1 1 0 2 3 4 2 2 4 3 6 7 7 8 9 10 9 6 4 3 1 5 7 3 6 0 4 3 11 12
11 13 15 15 16 18 19 21 21 19 15 11 7 4 2 3 3 4 4 4 3 4 4 4 5 1 4 4 3 5 2 2 5 9 7 6 3 3 3 3 12 12 3 4 6 7 12
10 10 12 14 15 14 16 18 19 18 15 8 10 7 4 2 1 4 3 3 3 4 4 5 3 2 1 2 1 3 4 2 2 2 3 5 5 5 2 4 5 1 5 4 3 6 7
11 11 12 13 13 13 12 13 16 16 15 8 6 9 2 2 2 1 3 2 2 3 3 2 4 3 2 2 3 4 5 1 4 4 5 3 5 12 11 7 8 8 8 4 1 6 5
12 12 13 12 12 13 12 11 12 14 14 11 3 7 3 3 4 4 3 3 1 1 2 1 2 1 2 2 2 4 3 4 1 4 6 8 7 5 5 5 10 7 4 6 5 2 6
11 12 14 13 12 12 12 10 10 11 12 11 3 7 7 4 5 5 10 13 6 2 0 4 0 2 3 2 3 3 3 2 4 4 3 4 8 5 10 7 6 11 7 11 2 4 4
Wind_Direction
29 24 27 28 26 28 33 36 37 42 49 47 54 68 91 118 130 135 102 67 57 58 42 152 112 134 83 77 43 5 16 47 41 39 177 233 202 108 122 104 150 66 108 75 89 315 294
28 26 29 31 29 28 28 33 36 36 34 49 66 80 84 102 133 101 81 32 64 78 115 126 137 133 98 79 337 14 16 43 57 92 29 343 26 14 77 112 360 74 52 96 60 357 272
30 29 30 29 30 32 30 30 32 36 37 46 59 75 54 69 92 99 72 37 62 98 150 127 123 108 53 43 343 26 64 63 45 81 68 22 12 340 133 104 63 110 219 189 195 155 349
31 33 30 27 27 28 29 29 26 32 42 51 57 72 85 102 103 82 62 51 65 85 174 134 132 97 58 343 344 52 80 76 70 76 84 60 69 58 15 109 174 216 213 197 126 173 119
32 32 28 27 23 20 22 24 32 34 47 57 51 58 58 108 81 75 78 69 76 93 116 113 96 90 109 339 36 35 69 87 86 83 77 67 41 101 218 212 156 200 271 187 165 190 11
33 31 28 26 20 18 21 24 39 42 45 44 44 57 102 123 101 90 98 93 75 80 91 95 78 78 279 52 348 50 48 42 92 142 131 53 69 112 35 52 88 333 261 100 237 166 229
26 25 23 22 19 19 22 29 38 46 53 54 56 54 87 130 113 107 96 93 23 37 37 65 76 93 132 237 292 36 0 93 190 246 97 31 68 80 61 29 9 355 351 319 326 105 331
21 21 17 13 11 15 21 29 36 44 47 55 75 75 85 101 97 88 65 75 48 123 61 42 56 49 355 294 73 23 338 210 234 86 134 76 86 58 61 30 21 1 339 340 302 76 311
24 21 22 19 20 18 19 33 38 43 47 71 87 95 88 96 97 96 88 86 116 42 76 38 31 40 304 25 32 18 359 327 27 90 31 90 85 90 343 47 11 132 20 8 307 313 276
21 21 20 21 21 24 27 29 38 46 57 73 101 97 106 98 84 110 88 105 68 284 93 24 43 341 325 327 61 31 354 0 32 58 66 71 115 354 204 49 351 322 22 312 315 7 300
16 16 16 17 22 23 28 31 38 46 65 83 111 88 130 82 139 93 126 238 306 252 72 359 9 277 322 110 146 39 1 360 69 87 240 79 155 205 46 196 290 12 323 296 329 305 340
13 13 13 13 15 22 24 28 38 48 59 84 105 107 102 126 76 120 330 297 226 34 72 105 352 191 112 92 96 161 133 80 333 95 65 91 31 293 34 218 236 310 273 263 239 269 266
12 15 14 13 13 16 22 23 40 46 56 63 107 139 102 155 347 299 342 306 42 54 236 102 124 116 95 86 80 62 95 78 118 88 22 215 164 149 234 239 196 227 210 318 324 209 233
12 15 14 15 14 15 15 20 26 42 59 73 103 222 259 239 282 284 344 287 64 258 125 166 174 162 70 13 63 172 191 138 190 266 162 157 258 192 164 269 337 1 331 140 230 315 293
15 14 12 16 15 15 17 14 24 32 65 99 88 303 238 252 282 176 236 50 136 190 144 151 205 142 112 117 288 246 39 60 34 347 49 116 274 95 201 334 285 143 213 49 52 226 312
13 15 15 17 19 18 18 17 14 19 10 194 173 239 272 324 281 213 59 100 102 112 127 189 152 276 133 115 207 221 178 292 138 323 307 124 317 199 131 218 248 294 28 195 243 300 283
15 12 14 18 16 19 17 15 13 8 4 8 222 248 2 344 297 203 75 80 113 118 334 320 83 132 118 153 294 146 115 153 207 149 285 312 112 167 121 203 178 172 237 224 302 257 219
14 15 14 14 14 12 15 14 10 10 6 57 286 360 347 2 34 46 29 70 111 151 199 230 315 9 31 345 104 72 65 52 106 64 307 72 323 261 222 97 45 290 256 186 175 250 218
11 14 14 14 13 13 12 14 10 11 17 349 343 356 352 4 80 60 218 56 351 128 214 249 47 346 6 349 301 341 116 114 160 219 355 79 234 315 287 64 187 236 226 237 280 315 232
12 14 16 15 13 13 13 13 13 12 14 23 304 14 358 38 299 122 145 125 120 9 36 323 6 323 247 216 188 256 211 164 175 215 98 35 264 213 211 218 18 244 250 228 210 209 243
13 12 14 14 15 13 14 14 15 13 20 32 4 64 107 336 32 65 277 197 138 177 245 253 210 263 303 283 210 218 214 148 193 157 210 244 254 243 261 274 282 271 263 246 242 230 230
10 13 14 12 12 14 15 16 16 20 36 54 17 338 215 94 1 306 76 206 206 134 236 194 264 37 258 266 356 340 28 239 244 150 220 195 270 320 281 263 260 265 256 243 237 246 256
8 10 13 13 12 13 16 17 20 24 46 46 10 321 283 139 167 285 46 63 315 30 162 316 327 313 252 294 346 327 306 293 282 213 198 206 209 335 268 353 321 286 263 241 234 247 240
4 5 5 9 11 12 16 19 20 28 42 40 17 304 326 327 262 290 47 42 256 225 313 352 277 282 39 325 302 255 245 253 257 252 219 260 189 265 282 312 251 244 83 60 219 236 228
1 360 357 358 6 9 11 16 20 23 31 47 25 357 12 291 24 292 229 247 235 208 210 237 258 24 4 309 299 300 245 264 241 222 227 204 253 286 265 261 284 292 209 150 167 259 227
334 343 344 349 352 1 7 10 15 18 22 41 22 26 313 331 62 7 306 251 273 248 189 198 117 53 281 255 265 255 260 297 223 119 36 293 201 226 287 252 260 254 140 82 87 280 213
323 327 327 332 339 342 353 4 8 11 14 28 25 11 309 287 293 160 218 278 164 325 300 123 151 190 267 212 220 227 238 104 257 216 165 159 211 224 238 259 279 260 148 150 144 238 135
314 317 319 323 326 330 334 346 358 1 6 14 349 26 28 299 278 222 226 211 153 262 284 351 17 292 161 243 240 250 220 223 256 224 177 172 171 190 201 223 258 136 85 187 209 122 170
303 307 315 320 316 319 320 327 340 349 357 2 322 330 321 225 268 281 253 252 275 171 213 208 285 16 231 249 299 337 309 249 232 270 181 222 206 186 195 217 229 190 199 210 156 169 206